User: anonymous   Login
Location: Unspecified
(0.0000°N, 0.0000°E)
Time: 09:59:36
(UTC+00:00)
Language:

STARLINK-11714 [DTC] - Orbit

View from above orbital plane
View from above orbital plane
View from above satellite
View from above satellite

Ground track
Ground track

The orbit is defined by the following mean orbital elements,

1 64134U          26145.30596029 +.00000000 +00000-0 +14847-2 0 00009
2 64134  43.0008 231.6005 0004282 292.8425  67.1991 15.70855543    06
Epoch (UTC): 25 May 2026 07:20:34
Eccentricity: 0.0004282
inclination: 43.0008°
perigee height: 354 km
apogee height: 359 km
right ascension of ascending node: 231.6005°
argument of perigee: 292.8425°
revolutions per day: 15.70855543
mean anomaly at epoch: 67.1991°

The dashed part of the orbit path shows where the satellite is in the earth's shadow,  

DLR